Location: Newark
(49.5647°N, 8.2922°E)
Time: 19:20:01
(UTC+00:00)

Transit 2A - Pass Details

Date: 27 February 2020
Orbit: 597 x 962 km, 66.7° (Epoch: 07 April)

Event Time Altitude Azimuth Distance (km) Brightness Sun altitude
Rises 16:19:56 0° 318° (NW) 2,955 9.3 6.2°
Reaches altitude 10° 16:24:08 10° 356° (N) 2,125 8.2 5.6°
Maximum altitude 16:25:24 11° 11° (NNE) 2,090 8.0 5.4°
Drops below altitude 10° 16:26:42 10° 27° (NNE) 2,180 8.0 5.2°
Sets 16:31:15 0° 63° (ENE) 3,211 8.5 4.5°
